| time (UTC) | temp C | wind direction | speed KPH | gust KPH | rain 1hr cm | rain 24hr cm | rain mn cm | humidity % | barometer mb |
| 20260507092453 | 15 | 331 | 0.0 | 0.0 | 0.00 | 0.00 | 0.00 | 1 | 977.3 |
| 20260507091500 | 15 | 331 | 0.0 | 0.0 | 0.00 | 0.00 | 0.00 | 1 | 977.2 |
| 20260507090428 | 15 | 331 | 0.0 | 0.0 | 0.00 | 0.00 | 0.00 | 1 | 977.4 |
| 20260507085449 | 15 | 331 | 0.0 | 0.0 | 0.00 | 0.00 | 0.00 | 1 | 976.9 |
| 20260507084428 | 15 | 331 | 0.0 | 0.0 | 0.00 | 0.00 | 0.00 | 1 | 976.7 |
| 20260507083439 | 15 | 331 | 0.0 | 0.0 | 0.00 | 0.00 | 0.00 | 1 | 976.8 |
| 20260507082450 | 15 | 331 | 0.0 | 0.0 | 0.00 | 0.00 | 0.00 | 1 | 976.6 |
| 20260507081514 | 15 | 331 | 0.0 | 0.0 | 0.00 | 0.00 | 0.00 | 1 | 976.9 |
| 20260507080503 | 15 | 331 | 0.0 | 0.0 | 0.00 | 0.00 | 0.00 | 1 | 976.5 |
| 20260507075503 | 15 | 331 | 0.0 | 0.0 | 0.00 | 0.00 | 0.00 | 1 | 976.5 |
| 20260507074444 | 15 | 331 | 0.0 | 0.0 | 0.00 | 0.00 | 0.00 | 1 | 976.3 |
| 20260507073433 | 15 | 332 | 0.0 | 0.0 | 0.00 | 0.00 | 0.00 | 1 | 976.6 |
| 20260507072440 | 15 | 332 | 0.0 | 1.6 | 0.00 | 0.00 | 0.00 | 1 | 976.2 |
| 20260507071412 | 15 | 332 | 0.0 | 0.0 | 0.00 | 0.00 | 0.00 | 1 | 975.9 |
| 20260507065241 | 15 | 332 | 0.0 | 0.0 | 0.00 | 0.00 | 0.00 | 1 | 976.1 |
| 20260507064248 | 15 | 332 | 0.0 | 0.0 | 0.00 | 0.00 | 0.00 | 2 | 976.3 |
| 20260507063259 | 15 | 332 | 0.0 | 3.2 | 0.00 | 0.00 | 0.00 | 4 | 975.8 |
| 20260507062244 | 15 | 341 | 0.0 | 3.2 | 0.00 | 0.00 | 0.00 | 2 | 976.2 |
| 20260507060054 | 15 | 342 | 0.0 | 0.0 | 0.00 | 0.00 | 0.00 | 1 | 976.3 |
| 20260507055024 | 15 | 342 | 0.0 | 0.0 | 0.00 | 0.00 | 0.00 | 1 | 976.3 |
| 20260507054015 | 15 | 342 | 0.0 | 0.0 | 0.00 | 0.00 | 0.00 | 4 | 976.2 |
| 20260507052947 | 15 | 342 | 0.0 | 0.0 | 0.00 | 0.00 | 0.00 | 8 | 976.0 |
| 20260507045714 | 15 | 344 | 0.0 | 0.0 | 0.00 | 0.00 | 0.00 | 11 | 976.0 |
| 20260507044724 | 15 | 344 | 0.0 | 0.0 | 0.00 | 0.00 | 0.00 | 7 | 975.7 |
| 20260507043658 | 15 | 344 | 0.0 | 0.0 | 0.00 | 0.00 | 0.00 | 6 | 976.3 |
| 20260507042656 | 15 | 346 | 0.0 | 0.0 | 0.00 | 0.00 | 0.00 | 8 | 976.1 |
| 20260507041703 | 15 | 346 | 0.0 | 0.0 | 0.00 | 0.00 | 0.00 | 7 | 976.1 |
| 20260507035554 | 16 | 346 | 0.0 | 0.0 | 0.00 | 0.00 | 0.00 | 1 | 976.2 |
| 20260507034536 | 16 | 346 | 0.0 | 0.0 | 0.00 | 0.00 | 0.00 | 1 | 976.4 |
| 20260507033601 | 16 | 346 | 0.0 | 0.0 | 0.00 | 0.00 | 0.00 | 1 | 976.1 |
| 20260507032550 | 16 | 347 | 0.0 | 0.0 | 0.00 | 0.00 | 0.00 | 1 | 975.9 |
| 20260507031613 | 16 | 346 | 0.0 | 0.0 | 0.00 | 0.00 | 0.00 | 1 | 975.9 |
| 20260507030625 | 16 | 346 | 0.0 | 0.0 | 0.00 | 0.00 | 0.00 | 1 | 975.8 |
| 20260507023322 | 16 | 344 | 0.0 | 0.0 | 0.00 | 0.00 | 0.00 | 3 | 975.9 |
| 20260507021211 | 16 | 344 | 0.0 | 0.0 | 0.00 | 0.00 | 0.00 | 8 | 975.2 |
| 20260507015033 | 16 | 344 | 0.0 | 0.0 | 0.00 | 0.00 | 0.00 | 12 | 974.9 |
| 20260507014031 | 16 | 344 | 0.0 | 0.0 | 0.00 | 0.00 | 0.00 | 13 | 974.8 |
| 20260507013032 | 16 | 344 | 0.0 | 0.0 | 0.00 | 0.00 | 0.00 | 14 | 974.8 |
| 20260507012054 | 16 | 344 | 0.0 | 0.0 | 0.00 | 0.00 | 0.00 | 15 | 974.3 |
| 20260507011032 | 16 | 344 | 0.0 | 0.0 | 0.00 | 0.00 | 0.00 | 20 | 974.2 |
| 20260507005958 | 16 | 344 | 0.0 | 0.0 | 0.00 | 0.00 | 0.00 | 21 | 974.3 |
| 20260507005015 | 16 | 344 | 0.0 | 0.0 | 0.00 | 0.00 | 0.00 | 18 | 974.2 |
| 20260507002920 | 16 | 344 | 0.0 | 0.0 | 0.00 | 0.00 | 0.00 | 28 | 974.1 |
| 20260507001910 | 16 | 344 | 0.0 | 0.0 | 0.00 | 0.00 | 0.00 | 30 | 973.6 |
| 20260507000901 | 16 | 344 | 0.0 | 0.0 | 0.00 | 0.00 | 0.00 | 31 | 973.7 |
| 20260506235840 | 16 | 344 | 0.0 | 0.0 | 0.00 | 0.00 | 0.00 | 33 | 974.0 |
| 20260506234853 | 16 | 344 | 0.0 | 0.0 | 0.00 | 0.00 | 0.00 | 36 | 973.6 |
| 20260506233834 | 16 | 344 | 0.0 | 0.0 | 0.00 | 0.00 | 0.00 | 33 | 973.9 |
| 20260506232850 | 16 | 344 | 0.0 | 0.0 | 0.00 | 0.00 | 0.00 | 36 | 973.4 |
| 20260506230709 | 16 | 344 | 0.0 | 0.0 | 0.00 | 0.00 | 0.00 | 33 | 973.5 |
| 20260506225651 | 16 | 344 | 0.0 | 0.0 | 0.00 | 0.00 | 0.00 | 33 | 973.3 |
| 20260506224708 | 16 | 343 | 0.0 | 0.0 | 0.00 | 0.00 | 0.00 | 27 | 973.7 |
| 20260506222519 | 16 | 342 | 0.0 | 0.0 | 0.00 | 0.00 | 0.00 | 30 | 973.4 |
| 20260506221452 | 16 | 341 | 0.0 | 0.0 | 0.00 | 0.00 | 0.00 | 32 | 973.4 |
| 20260506220445 | 16 | 341 | 0.0 | 0.0 | 0.00 | 0.00 | 0.00 | 35 | 973.4 |
| 20260506215447 | 16 | 340 | 0.0 | 1.6 | 0.00 | 0.00 | 0.00 | 44 | 973.6 |
| 20260506214509 | 16 | 340 | 0.0 | 1.6 | 0.00 | 0.00 | 0.00 | 50 | 973.4 |
| 20260506213534 | 16 | 331 | 0.0 | 0.0 | 0.00 | 0.00 | 0.00 | 50 | 973.3 |
| 20260506212522 | 17 | 13 | 0.0 | 0.0 | 0.00 | 0.00 | 0.00 | 51 | 973.3 |
| 20260506211545 | 17 | 13 | 0.0 | 0.0 | 0.00 | 0.00 | 0.00 | 53 | 973.5 |
| 20260506210547 | 17 | 13 | 0.0 | 0.0 | 0.00 | 0.00 | 0.00 | 58 | 973.6 |
| 20260506205546 | 17 | 13 | 0.0 | 0.0 | 0.00 | 0.00 | 0.00 | 59 | 973.7 |
| 20260506203349 | 18 | 14 | 0.0 | 0.0 | 0.00 | 0.00 | 0.00 | 61 | 973.8 |
| 20260506202403 | 20 | 14 | 0.0 | 0.0 | 0.00 | 0.00 | 0.00 | 62 | 973.8 |
| 20260506201427 | 20 | 13 | 0.0 | 0.0 | 0.00 | 0.00 | 0.00 | 61 | 973.7 |
| 20260506200413 | 21 | 9 | 0.0 | 0.0 | 0.00 | 0.00 | 0.00 | 60 | 973.7 |
| 20260506195430 | 21 | 5 | 0.0 | 0.0 | 0.00 | 0.00 | 0.00 | 59 | 973.5 |
| 20260506194455 | 20 | 5 | 0.0 | 0.0 | 0.00 | 0.00 | 0.00 | 59 | 973.4 |
| 20260506193450 | 20 | 5 | 0.0 | 0.0 | 0.00 | 0.00 | 0.00 | 58 | 973.4 |
| 20260506191354 | 21 | 17 | 0.0 | 0.0 | 0.00 | 0.00 | 0.00 | 59 | 973.5 |
| 20260506190325 | 21 | 17 | 0.0 | 0.0 | 0.00 | 0.00 | 0.00 | 60 | 973.6 |
| 20260506185345 | 23 | 17 | 0.0 | 0.0 | 0.00 | 0.00 | 0.00 | 60 | 973.6 |
| 20260506184322 | 24 | 19 | 0.0 | 0.0 | 0.00 | 0.00 | 0.00 | 59 | 973.2 |
| 20260506183342 | 25 | 161 | 0.0 | 0.0 | 0.00 | 0.00 | 0.00 | 59 | 973.1 |
| 20260506181219 | 23 | 165 | 0.0 | 0.0 | 0.00 | 0.00 | 0.00 | 54 | 973.1 |
| 20260506180208 | 23 | 165 | 0.0 | 0.0 | 0.00 | 0.00 | 0.00 | 47 | 973.2 |
| 20260506175139 | 22 | 167 | 0.0 | 0.0 | 0.00 | 0.00 | 0.00 | 52 | 972.9 |
| 20260506174159 | 22 | 160 | 0.0 | 1.6 | 0.00 | 0.00 | 0.00 | 49 | 972.6 |
| 20260506173217 | 22 | 155 | 0.0 | 0.0 | 0.00 | 0.00 | 0.00 | 30 | 972.7 |
| 20260506172234 | 21 | 161 | 0.0 | 0.0 | 0.00 | 0.00 | 0.00 | 34 | 972.7 |
| 20260506170149 | 20 | 146 | 0.0 | 0.0 | 0.00 | 0.00 | 0.00 | 16 | 972.6 |
| 20260506165123 | 20 | 145 | 0.0 | 1.6 | 0.00 | 0.00 | 0.00 | 1 | 973.0 |
| 20260506164110 | 20 | 216 | 0.0 | 6.4 | 0.00 | 0.00 | 0.00 | 1 | 972.7 |
| 20260506163051 | 18 | 88 | 0.0 | 0.0 | 0.00 | 0.00 | 0.00 | 1 | 973.3 |
| 20260506160941 | 17 | 155 | 0.0 | 3.2 | 0.00 | 0.00 | 0.00 | 1 | 973.9 |
| 20260506155918 | 17 | 5 | 0.0 | 0.0 | 0.00 | 0.00 | 0.00 | 1 | 974.3 |
| 20260506154900 | 18 | 29 | 0.0 | 0.0 | 0.00 | 0.00 | 0.00 | 1 | 974.1 |
| 20260506153901 | 18 | 308 | 0.0 | 1.6 | 0.00 | 0.00 | 0.00 | 1 | 973.8 |
| 20260506152916 | 19 | 350 | 0.0 | 0.0 | 0.00 | 0.00 | 0.00 | 1 | 974.0 |
| 20260506151921 | 19 | 328 | 0.0 | 3.2 | 0.00 | 0.00 | 0.00 | 1 | 973.8 |
| 20260506150857 | 20 | 350 | 0.0 | 0.0 | 0.00 | 0.00 | 0.00 | 1 | 973.5 |
| 20260506145906 | 21 | 347 | 0.0 | 0.0 | 0.00 | 0.00 | 0.00 | 11 | 973.2 |
| 20260506144930 | 22 | 340 | 0.0 | 0.0 | 0.00 | 0.00 | 0.00 | 26 | 972.7 |
| 20260506143947 | 24 | 343 | 0.0 | 1.6 | 0.00 | 0.00 | 0.00 | 25 | 972.1 |
| 20260506135620 | 25 | 257 | 0.0 | 0.0 | 0.00 | 0.00 | 0.00 | 1 | 971.6 |
| 20260506134606 | 25 | 257 | 0.0 | 0.0 | 0.00 | 0.00 | 0.00 | 1 | 971.2 |
| 20260506133622 | 25 | 257 | 0.0 | 0.0 | 0.00 | 0.00 | 0.00 | 1 | 970.9 |
| 20260506132550 | 24 | 257 | 0.0 | 0.0 | 0.00 | 0.00 | 0.00 | 1 | 971.0 |
| 20260506131529 | 24 | 257 | 0.0 | 0.0 | 0.00 | 0.00 | 0.00 | 1 | 970.9 |
| 20260506125334 | 23 | 257 | 0.0 | 0.0 | 0.00 | 0.00 | 0.00 | 1 | 970.7 |
| 20260506124332 | 23 | 257 | 0.0 | 0.0 | 0.00 | 0.00 | 0.00 | 1 | 970.6 |
| 20260506123333 | 23 | 257 | 0.0 | 0.0 | 0.00 | 0.00 | 0.00 | 1 | 970.4 |
| 20260506122315 | 23 | 257 | 0.0 | 0.0 | 0.00 | 0.00 | 0.00 | 1 | 970.3 |
| 20260506121329 | 23 | 257 | 0.0 | 0.0 | 0.00 | 0.00 | 0.00 | 1 | 970.3 |
| 20260506120318 | 23 | 257 | 0.0 | 0.0 | 0.00 | 0.00 | 0.00 | 1 | 970.4 |
| 20260506114122 | 23 | 257 | 0.0 | 0.0 | 0.00 | 0.00 | 0.00 | 1 | 970.3 |
| 20260506113143 | 24 | 257 | 0.0 | 0.0 | 0.00 | 0.00 | 0.00 | 1 | 970.5 |
| 20260506112119 | 24 | 257 | 0.0 | 0.0 | 0.00 | 0.00 | 0.00 | 1 | 970.6 |
| 20260506111123 | 24 | 257 | 0.0 | 0.0 | 0.00 | 0.00 | 0.00 | 1 | 970.7 |
| 20260506110139 | 24 | 257 | 0.0 | 0.0 | 0.00 | 0.00 | 0.00 | 1 | 970.5 |
| 20260506105117 | 24 | 257 | 0.0 | 0.0 | 0.00 | 0.00 | 0.00 | 1 | 970.5 |
| 20260506104109 | 24 | 257 | 0.0 | 0.0 | 0.00 | 0.00 | 0.00 | 1 | 970.4 |
| 20260506103127 | 24 | 257 | 0.0 | 0.0 | 0.00 | 0.00 | 0.00 | 1 | 970.3 |
| 20260506102133 | 24 | 257 | 0.0 | 0.0 | 0.00 | 0.00 | 0.00 | 1 | 970.2 |
| 20260506101130 | 24 | 257 | 0.0 | 0.0 | 0.00 | 0.00 | 0.00 | 1 | 970.2 |
| 20260506100148 | 24 | 257 | 0.0 | 0.0 | 0.00 | 0.00 | 0.00 | 1 | 970.0 |
| 20260506094010 | 24 | 257 | 0.0 | 3.2 | 0.00 | 0.00 | 0.00 | 1 | 969.8 |
| 20260506092952 | 24 | 257 | 0.0 | 0.0 | 0.00 | 0.00 | 0.00 | 1 | 969.6 |